Time,TemperatureF,DewpointF,PressureIn,WindDirection,WindDirectionDegrees,WindSpeedMPH,WindSpeedGustMPH,Humidity,HourlyPrecipIn,Conditions,Clouds,dailyrainin,SoftwareType,DateUTC
2013-02-19 00:01:00,49.7,49.0,29.99,South,179,0.0,0.0,96,0.00,,,0.00,weatherlink.com 1.10,2013-02-18 23:01:00,
2013-02-19 00:16:00,49.1,48.0,29.99,South,188,0.0,0.0,96,0.00,,,0.00,weatherlink.com 1.10,2013-02-18 23:16:00,
2013-02-19 00:31:00,48.3,47.0,29.99,South,180,3.0,3.0,96,0.00,,,0.00,weatherlink.com 1.10,2013-02-18 23:31:00,
2013-02-19 00:46:00,48.6,48.0,30.00,South,184,4.0,4.0,96,0.00,,,0.00,weatherlink.com 1.10,2013-02-18 23:46:00,
2013-02-19 01:01:00,49.6,49.0,29.99,SSW,195,5.0,5.0,97,0.00,,,0.00,weatherlink.com 1.10,2013-02-19 00:01:00,
2013-02-19 01:16:00,49.6,49.0,29.99,SSW,210,5.0,6.0,96,0.00,,,0.00,weatherlink.com 1.10,2013-02-19 00:16:00,
2013-02-19 01:31:00,49.7,49.0,29.99,SW,220,1.0,3.0,96,0.00,,,0.00,weatherlink.com 1.10,2013-02-19 00:31:00,
2013-02-19 01:46:00,49.8,49.0,29.98,WSW,245,0.0,3.0,96,0.00,,,0.00,weatherlink.com 1.10,2013-02-19 00:46:00,
2013-02-19 02:01:00,49.4,48.0,29.99,SSW,194,0.0,1.0,96,0.00,,,0.00,weatherlink.com 1.10,2013-02-19 01:01:00,
2013-02-19 02:16:00,49.1,48.0,29.99,ENE,62,0.0,2.0,96,0.00,,,0.00,weatherlink.com 1.10,2013-02-19 01:16:00,
2013-02-19 02:31:00,49.0,48.0,29.99,SSE,165,0.0,2.0,96,0.00,,,0.00,weatherlink.com 1.10,2013-02-19 01:31:00,
2013-02-19 02:46:00,49.4,48.0,29.99,SSW,198,0.0,2.0,95,0.00,,,0.00,weatherlink.com 1.10,2013-02-19 01:46:00,
2013-02-19 03:01:00,49.4,48.0,29.99,SW,217,0.0,0.0,96,0.00,,,0.00,weatherlink.com 1.10,2013-02-19 02:01:00,
2013-02-19 03:16:00,48.3,47.0,29.98,SW,215,2.0,4.0,96,0.00,,,0.00,weatherlink.com 1.10,2013-02-19 02:16:00,
2013-02-19 03:31:00,49.5,49.0,29.98,West,270,1.0,4.0,97,0.00,,,0.00,weatherlink.com 1.10,2013-02-19 02:31:00,
2013-02-19 03:46:00,50.0,49.0,29.99,SW,228,1.0,4.0,96,0.01,,,0.01,weatherlink.com 1.10,2013-02-19 02:46:00,
2013-02-19 04:01:00,50.3,49.0,29.98,WSW,249,5.0,5.0,96,0.01,,,0.01,weatherlink.com 1.10,2013-02-19 03:01:00,
2013-02-19 04:16:00,49.7,48.0,29.98,WSW,243,0.0,3.0,95,0.01,,,0.01,weatherlink.com 1.10,2013-02-19 03:16:00,
2013-02-19 04:31:00,48.5,48.0,29.99,East,98,1.0,1.0,96,0.01,,,0.01,weatherlink.com 1.10,2013-02-19 03:31:00,
2013-02-19 04:46:00,48.2,47.0,29.98,ESE,115,0.0,2.0,96,0.00,,,0.01,weatherlink.com 1.10,2013-02-19 03:46:00,
2013-02-19 05:02:00,48.3,48.0,29.99,SSE,148,1.0,2.0,97,0.00,,,0.01,weatherlink.com 1.10,2013-02-19 04:02:00,
2013-02-19 05:17:00,48.4,47.0,29.99,ESE,105,1.0,2.0,96,0.00,,,0.01,weatherlink.com 1.10,2013-02-19 04:17:00,
2013-02-19 05:32:00,48.6,48.0,29.98,South,188,2.0,3.0,97,0.00,,,0.01,weatherlink.com 1.10,2013-02-19 04:32:00,
2013-02-19 05:47:00,49.9,49.0,29.98,West,270,3.0,4.0,97,0.00,,,0.01,weatherlink.com 1.10,2013-02-19 04:47:00,
2013-02-19 06:02:00,50.8,50.0,29.98,WSW,243,2.0,6.0,96,0.00,,,0.01,weatherlink.com 1.10,2013-02-19 05:02:00,
2013-02-19 06:17:00,51.4,50.0,29.99,West,269,4.0,6.0,95,0.00,,,0.01,weatherlink.com 1.10,2013-02-19 05:17:00,
2013-02-19 06:32:00,51.7,50.0,29.99,West,271,3.0,7.0,94,0.00,,,0.01,weatherlink.com 1.10,2013-02-19 05:32:00,
2013-02-19 06:47:00,51.7,50.0,29.99,WSW,249,3.0,5.0,93,0.00,,,0.01,weatherlink.com 1.10,2013-02-19 05:47:00,
2013-02-19 07:02:00,51.8,50.0,29.98,WSW,238,3.0,6.0,93,0.00,,,0.01,weatherlink.com 1.10,2013-02-19 06:02:00,
2013-02-19 07:17:00,51.9,50.0,29.99,WSW,253,4.0,6.0,93,0.00,,,0.01,weatherlink.com 1.10,2013-02-19 06:17:00,
2013-02-19 07:32:00,52.0,50.0,29.99,WSW,239,7.0,10.0,92,0.00,,,0.01,weatherlink.com 1.10,2013-02-19 06:32:00,
2013-02-19 07:47:00,51.6,49.0,30.00,West,262,5.0,8.0,92,0.00,,,0.01,weatherlink.com 1.10,2013-02-19 06:47:00,
2013-02-19 08:02:00,51.4,49.0,29.99,WSW,240,5.0,8.0,92,0.00,,,0.01,weatherlink.com 1.10,2013-02-19 07:02:00,
2013-02-19 08:17:00,51.3,49.0,30.00,WSW,250,4.0,7.0,92,0.00,,,0.01,weatherlink.com 1.10,2013-02-19 07:17:00,
2013-02-19 08:32:00,51.9,50.0,30.00,WSW,245,2.0,7.0,92,0.00,,,0.01,weatherlink.com 1.10,2013-02-19 07:32:00,
2013-02-19 08:47:00,52.2,50.0,30.00,WSW,247,4.0,6.0,91,0.00,,,0.01,weatherlink.com 1.10,2013-02-19 07:47:00,
2013-02-19 09:02:00,52.2,50.0,30.00,WSW,246,11.0,11.0,91,0.00,,,0.01,weatherlink.com 1.10,2013-02-19 08:02:00,
2013-02-19 09:17:00,52.5,50.0,30.01,SW,219,5.0,9.0,90,0.00,,,0.01,weatherlink.com 1.10,2013-02-19 08:17:00,
2013-02-19 09:32:00,53.0,50.0,30.00,West,262,9.0,11.0,89,0.00,,,0.01,weatherlink.com 1.10,2013-02-19 08:32:00,
2013-02-19 09:47:00,53.5,50.0,30.01,West,271,7.0,9.0,87,0.00,,,0.01,weatherlink.com 1.10,2013-02-19 08:47:00,
2013-02-19 10:02:00,53.8,50.0,30.01,West,276,6.0,12.0,86,0.00,,,0.01,weatherlink.com 1.10,2013-02-19 09:02:00,
2013-02-19 10:17:00,54.3,50.0,30.01,WSW,238,7.0,11.0,86,0.00,,,0.01,weatherlink.com 1.10,2013-02-19 09:17:00,
2013-02-19 10:32:00,54.7,50.0,30.01,SW,229,4.0,12.0,85,0.00,,,0.01,weatherlink.com 1.10,2013-02-19 09:32:00,
2013-02-19 10:47:00,54.5,50.0,30.01,West,271,4.0,13.0,85,0.00,,,0.01,weatherlink.com 1.10,2013-02-19 09:47:00,
2013-02-19 11:02:00,55.3,51.0,30.02,WNW,299,5.0,12.0,84,0.00,,,0.01,weatherlink.com 1.10,2013-02-19 10:02:00,
2013-02-19 11:18:00,55.7,50.0,30.02,WSW,256,4.0,14.0,82,0.00,,,0.01,weatherlink.com 1.10,2013-02-19 10:18:00,
2013-02-19 11:33:00,55.9,50.0,30.02,WSW,240,9.0,13.0,79,0.00,,,0.01,weatherlink.com 1.10,2013-02-19 10:33:00,
2013-02-19 11:48:00,54.9,49.0,30.02,West,278,10.0,13.0,81,0.00,,,0.01,weatherlink.com 1.10,2013-02-19 10:48:00,
2013-02-19 12:03:00,54.6,49.0,30.02,WSW,253,5.0,15.0,80,0.00,,,0.01,weatherlink.com 1.10,2013-02-19 11:03:00,
2013-02-19 12:18:00,54.7,48.0,30.01,WSW,248,10.0,16.0,79,0.00,,,0.01,weatherlink.com 1.10,2013-02-19 11:18:00,
2013-02-19 12:33:00,55.4,49.0,30.01,West,263,7.0,13.0,79,0.00,,,0.01,weatherlink.com 1.10,2013-02-19 11:33:00,
2013-02-19 12:48:00,55.8,48.0,30.01,West,271,11.0,15.0,76,0.00,,,0.01,weatherlink.com 1.10,2013-02-19 11:48:00,
2013-02-19 13:03:00,55.7,48.0,30.00,SW,225,7.0,13.0,76,0.00,,,0.01,weatherlink.com 1.10,2013-02-19 12:03:00,
2013-02-19 13:18:00,55.9,47.0,30.00,West,264,9.0,13.0,73,0.00,,,0.01,weatherlink.com 1.10,2013-02-19 12:18:00,
2013-02-19 13:33:00,55.3,48.0,29.99,West,270,7.0,15.0,76,0.00,,,0.01,weatherlink.com 1.10,2013-02-19 12:33:00,
2013-02-19 13:47:00,55.0,48.0,29.98,WSW,246,8.0,15.0,76,0.00,,,0.01,weatherlink.com 1.10,2013-02-19 12:47:00,
2013-02-19 14:02:00,55.2,47.0,29.98,West,266,6.0,16.0,74,0.00,,,0.01,weatherlink.com 1.10,2013-02-19 13:02:00,
2013-02-19 14:17:00,55.5,47.0,29.97,West,263,12.0,15.0,73,0.00,,,0.01,weatherlink.com 1.10,2013-02-19 13:17:00,
2013-02-19 14:33:00,55.5,47.0,29.97,WSW,257,8.0,14.0,72,0.00,,,0.01,weatherlink.com 1.10,2013-02-19 13:33:00,
2013-02-19 14:47:00,55.6,47.0,29.97,West,270,9.0,14.0,72,0.00,,,0.01,weatherlink.com 1.10,2013-02-19 13:47:00,
2013-02-19 15:02:00,55.2,46.0,29.97,WNW,295,8.0,15.0,72,0.00,,,0.01,weatherlink.com 1.10,2013-02-19 14:02:00,
2013-02-19 15:17:00,55.1,46.0,29.96,WNW,290,9.0,13.0,71,0.00,,,0.01,weatherlink.com 1.10,2013-02-19 14:17:00,
2013-02-19 15:32:00,54.7,45.0,29.96,West,280,11.0,16.0,71,0.00,,,0.01,weatherlink.com 1.10,2013-02-19 14:32:00,
2013-02-19 15:47:00,54.5,44.0,29.96,WSW,248,7.0,16.0,69,0.00,,,0.01,weatherlink.com 1.10,2013-02-19 14:47:00,
2013-02-19 16:02:00,54.6,46.0,29.96,West,264,6.0,15.0,72,0.00,,,0.01,weatherlink.com 1.10,2013-02-19 15:02:00,
2013-02-19 16:17:00,54.3,45.0,29.95,West,264,11.0,14.0,72,0.00,,,0.01,weatherlink.com 1.10,2013-02-19 15:17:00,
2013-02-19 16:32:00,54.1,45.0,29.95,West,269,6.0,15.0,72,0.00,,,0.01,weatherlink.com 1.10,2013-02-19 15:32:00,
2013-02-19 16:47:00,53.8,45.0,29.94,WSW,248,9.0,15.0,71,0.00,,,0.01,weatherlink.com 1.10,2013-02-19 15:47:00,
2013-02-19 17:02:00,53.7,44.0,29.94,West,264,7.0,13.0,71,0.00,,,0.01,weatherlink.com 1.10,2013-02-19 16:02:00,
2013-02-19 17:17:00,53.6,44.0,29.94,West,274,8.0,12.0,71,0.00,,,0.01,weatherlink.com 1.10,2013-02-19 16:17:00,
2013-02-19 17:32:00,53.4,44.0,29.94,West,276,9.0,13.0,71,0.00,,,0.01,weatherlink.com 1.10,2013-02-19 16:32:00,
2013-02-19 17:47:00,53.2,44.0,29.95,WSW,254,5.0,12.0,71,0.00,,,0.01,weatherlink.com 1.10,2013-02-19 16:47:00,
2013-02-19 18:02:00,53.1,44.0,29.95,West,269,8.0,13.0,71,0.00,,,0.01,weatherlink.com 1.10,2013-02-19 17:02:00,
2013-02-19 18:17:00,52.9,44.0,29.95,WSW,242,3.0,10.0,72,0.00,,,0.01,weatherlink.com 1.10,2013-02-19 17:17:00,
2013-02-19 18:32:00,52.5,43.0,29.96,WNW,285,3.0,9.0,71,0.00,,,0.01,weatherlink.com 1.10,2013-02-19 17:32:00,
2013-02-19 18:47:00,52.3,43.0,29.96,WSW,238,7.0,8.0,71,0.00,,,0.01,weatherlink.com 1.10,2013-02-19 17:47:00,
2013-02-19 19:02:00,52.1,43.0,29.96,WSW,243,5.0,9.0,72,0.00,,,0.01,weatherlink.com 1.10,2013-02-19 18:02:00,
2013-02-19 19:17:00,51.5,43.0,29.97,WSW,238,2.0,5.0,73,0.00,,,0.01,weatherlink.com 1.10,2013-02-19 18:17:00,
2013-02-19 19:32:00,50.5,43.0,29.97,SW,225,3.0,5.0,75,0.00,,,0.01,weatherlink.com 1.10,2013-02-19 18:32:00,
2013-02-19 19:47:00,50.0,43.0,29.97,SW,231,3.0,5.0,77,0.00,,,0.01,weatherlink.com 1.10,2013-02-19 18:47:00,
2013-02-19 20:02:00,49.7,43.0,29.97,WSW,248,4.0,6.0,78,0.00,,,0.01,weatherlink.com 1.10,2013-02-19 19:02:00,
2013-02-19 20:17:00,49.6,43.0,29.96,SW,236,4.0,6.0,77,0.00,,,0.01,weatherlink.com 1.10,2013-02-19 19:17:00,
2013-02-19 20:32:00,49.1,42.0,29.97,WSW,238,2.0,6.0,77,0.00,,,0.01,weatherlink.com 1.10,2013-02-19 19:32:00,
2013-02-19 20:47:00,49.2,42.0,29.97,WSW,246,4.0,6.0,76,0.00,,,0.01,weatherlink.com 1.10,2013-02-19 19:47:00,
2013-02-19 21:02:00,49.0,42.0,29.97,SW,233,2.0,4.0,76,0.00,,,0.01,weatherlink.com 1.10,2013-02-19 20:02:00,
2013-02-19 21:17:00,48.7,41.0,29.98,SW,229,3.0,4.0,75,0.00,,,0.01,weatherlink.com 1.10,2013-02-19 20:17:00,
2013-02-19 21:32:00,47.8,41.0,29.98,SSW,212,1.0,3.0,76,0.00,,,0.01,weatherlink.com 1.10,2013-02-19 20:32:00,
2013-02-19 21:47:00,46.6,40.0,29.98,South,186,2.0,4.0,79,0.00,,,0.01,weatherlink.com 1.10,2013-02-19 20:47:00,
2013-02-19 22:02:00,46.5,40.0,29.98,SSW,197,2.0,3.0,79,0.00,,,0.01,weatherlink.com 1.10,2013-02-19 21:02:00,
2013-02-19 22:17:00,46.2,40.0,29.98,SSW,197,0.0,0.0,79,0.00,,,0.01,weatherlink.com 1.10,2013-02-19 21:17:00,
2013-02-19 22:32:00,46.2,40.0,29.98,SE,143,1.0,2.0,79,0.00,,,0.01,weatherlink.com 1.10,2013-02-19 21:32:00,
2013-02-19 22:47:00,46.3,40.0,29.98,SE,146,0.0,2.0,78,0.00,,,0.01,weatherlink.com 1.10,2013-02-19 21:47:00,
2013-02-19 23:02:00,45.9,40.0,29.98,East,89,0.0,1.0,79,0.00,,,0.01,weatherlink.com 1.10,2013-02-19 22:02:00,
2013-02-19 23:17:00,45.4,40.0,29.98,SE,131,1.0,2.0,80,0.00,,,0.01,weatherlink.com 1.10,2013-02-19 22:17:00,
2013-02-19 23:33:00,44.4,39.0,29.98,South,179,3.0,4.0,81,0.00,,,0.01,weatherlink.com 1.10,2013-02-19 22:33:00,
2013-02-19 23:48:00,43.8,39.0,29.97,South,176,0.0,4.0,82,0.00,,,0.01,weatherlink.com 1.10,2013-02-19 22:48:00,